"Pseudo-MPEC" for CARDH82

Created 2024 Sep 25 9:22:04 UT using Find_Orb

Click here for an explanation of pseudo-MPECs

 
 Astrometry: 
     CARDH82*1C2024 09 05.35993201 51 25.891+28 58 40.51   ~9P1M 21.09GVNEOCPG96
     CARDH82 1C2024 09 05.36515001 51 24.822+28 58 53.65   ~9P1M 21.41GVNEOCPG96
     CARDH82 1C2024 09 05.37037201 51 23.843+28 59 04.63   ~9P1M 21.57GVNEOCPG96
     CARDH82 1C2024 09 05.37559301 51 22.910+28 59 17.16   ~9P1M 22.54GVNEOCPG96

Station data:
(G96) Mt. Lemmon Survey  (N32.442729 W110.788720)  US/Arizona.  Observer E.
   J. Christensen. 1.5-m reflector + 10K CCD.

Orbital elements:  CARDH82
   Perihelion 2024 May 12.14632 +/- 116 TT =  3:30:42 (JD 2460442.64632)
Epoch 2024 Sep  5.0 TT = JDT 2460558.5   Earth MOID: 0.1760   Ma: 0.0610
M  60.65349263 +/- 110              (J2000 ecliptic)             AutoNEOCP
n   0.52353532 +/- 0.534            Peri.  262.88106 +/- 80
a   1.52465666 +/- 1.04             Node   353.13810 +/- 60
e   0.4088361 +/- 0.244             Incl.   37.18920 +/- 38
P   1.883/687.620d         H 20.70  G  0.15   U 12.3  SR
q 0.90132183 +/- 0.568    Q 2.14799150 +/- 8.07
From 4 observations 2024 Sept. 5 (22.6 min); mean residual 0".45
Residuals in arcseconds: 
240905 G96  .48+  .34-    240905 G96  .36-  .41-    
240905 G96  .54-  .71+    240905 G96  .42+  .03+    

Ephemerides (geocentric):
Date (UTC) HH   RA             Dec           delta  r     elong  mag " sig PA
---- --------  ------------   ------------  ------ ------ -----  --- --------
2024 09 25 09  00 33 56.869   +38 20 56.49  .65821 1.5754 142.2 21.9  44d 117
2024 09 25 10  00 33 46.225   +38 21 33.51  .65839 1.5756 142.2 21.9  44d 117
2024 09 25 11  00 33 35.583   +38 22 10.38  .65857 1.5758 142.2 21.9  44d 117
2024 09 25 12  00 33 24.942   +38 22 47.09  .65874 1.5760 142.2 21.9  44d 117
2024 09 25 13  00 33 14.303   +38 23 23.66  .65892 1.5763 142.3 21.9  44d 117
2024 09 25 14  00 33 03.666   +38 24 00.07  .65910 1.5765 142.3 21.9  44d 117
2024 09 25 15  00 32 53.030   +38 24 36.33  .65928 1.5767 142.3 21.9  44d 117
2024 09 25 16  00 32 42.397   +38 25 12.44  .65946 1.5770 142.3 21.9  44d 117
2024 09 25 17  00 32 31.764   +38 25 48.39  .65964 1.5772 142.3 21.9  44d 117
2024 09 25 18  00 32 21.134   +38 26 24.20  .65982 1.5774 142.3 21.9  44d 117
2024 09 25 19  00 32 10.506   +38 26 59.85  .66000 1.5776 142.4 21.9  44d 117
2024 09 25 20  00 31 59.879   +38 27 35.35  .66018 1.5779 142.4 21.9  44d 117
2024 09 25 21  00 31 49.255   +38 28 10.70  .66036 1.5781 142.4 21.9  44d 117
2024 09 25 22  00 31 38.632   +38 28 45.90  .66055 1.5783 142.4 21.9  44d 117
2024 09 25 23  00 31 28.012   +38 29 20.95  .66073 1.5786 142.4 21.9  44d 117
2024 09 26 00  00 31 17.393   +38 29 55.84  .66091 1.5788 142.4 21.9  44d 117
2024 09 26 01  00 31 06.777   +38 30 30.59  .66110 1.5790 142.4 21.9  44d 117
2024 09 26 02  00 30 56.163   +38 31 05.18  .66128 1.5792 142.5 21.9  44d 117
2024 09 26 03  00 30 45.551   +38 31 39.62  .66146 1.5795 142.5 21.9  44d 117
2024 09 26 04  00 30 34.941   +38 32 13.91  .66165 1.5797 142.5 21.9  44d 117
2024 09 26 05  00 30 24.333   +38 32 48.05  .66184 1.5799 142.5 21.9  44d 117
2024 09 26 06  00 30 13.728   +38 33 22.04  .66202 1.5802 142.5 21.9  44d 117
2024 09 26 07  00 30 03.125   +38 33 55.88  .66221 1.5804 142.5 21.9  44d 117
2024 09 26 08  00 29 52.525   +38 34 29.57  .66240 1.5806 142.6 21.9  44d 117
2024 09 26 09  00 29 41.926   +38 35 03.11  .66258 1.5808 142.6 21.9  44d 117
2024 09 26 10  00 29 31.331   +38 35 36.49  .66277 1.5811 142.6 21.9  44d 117
2024 09 26 11  00 29 20.737   +38 36 09.73  .66296 1.5813 142.6 21.9  44d 117
2024 09 26 12  00 29 10.147   +38 36 42.81  .66315 1.5815 142.6 21.9  44d 117
2024 09 26 13  00 28 59.559   +38 37 15.75  .66334 1.5818 142.6 21.9  44d 117
2024 09 26 14  00 28 48.973   +38 37 48.53  .66353 1.5820 142.6 21.9  44d 117
2024 09 26 15  00 28 38.390   +38 38 21.17  .66372 1.5822 142.7 21.9  44d 117
2024 09 26 16  00 28 27.810   +38 38 53.65  .66391 1.5824 142.7 21.9  44d 117
2024 09 26 17  00 28 17.232   +38 39 25.98  .66410 1.5827 142.7 21.9  44d 117
2024 09 26 18  00 28 06.658   +38 39 58.17  .66429 1.5829 142.7 21.9  44d 117
2024 09 26 19  00 27 56.086   +38 40 30.20  .66449 1.5831 142.7 21.9  44d 117
2024 09 26 20  00 27 45.517   +38 41 02.09  .66468 1.5833 142.7 21.9  44d 117
2024 09 26 21  00 27 34.950   +38 41 33.82  .66487 1.5836 142.7 21.9  44d 117
2024 09 26 22  00 27 24.387   +38 42 05.40  .66507 1.5838 142.8 21.9  44d 117
2024 09 26 23  00 27 13.827   +38 42 36.84  .66526 1.5840 142.8 21.9  44d 117
2024 09 27 00  00 27 03.269   +38 43 08.12  .66545 1.5843 142.8 21.9  44d 117
2024 09 27 01  00 26 52.715   +38 43 39.26  .66565 1.5845 142.8 21.9  44d 117
2024 09 27 02  00 26 42.163   +38 44 10.25  .66584 1.5847 142.8 21.9  44d 117
2024 09 27 03  00 26 31.615   +38 44 41.08  .66604 1.5849 142.8 21.9  44d 117
2024 09 27 04  00 26 21.070   +38 45 11.77  .66624 1.5852 142.8 21.9  44d 117
2024 09 27 05  00 26 10.528   +38 45 42.31  .66643 1.5854 142.8 21.9  44d 117
2024 09 27 06  00 25 59.989   +38 46 12.70  .66663 1.5856 142.9 21.9  44d 117
2024 09 27 07  00 25 49.454   +38 46 42.94  .66683 1.5858 142.9 21.9  44d 117
2024 09 27 08  00 25 38.922   +38 47 13.04  .66703 1.5861 142.9 21.9  44d 117